Rogers, Texas
Current Conditions -  °F | °C
As of 4:15 AM on Wednesday 22 Oct 2014 (Local Time) from KT35 Reporting Station
Clear Clear  
Wind Chill: 60°   Ceiling: Unl
Heat Index: 60°   Visibility: 10mi
Dew Point: 58°   Wind: 0mph
Humidity: 94%   Direction: NA
Pressure: 30.06"   Gusts: NA
Location:  30.93°N, 97.23°W
Report Text: KT35 220915Z AUTO 00000KT 10SM CLR 16/15 A3006 RMK AO2 T01550145
Loading
Personal Weather Stations






























Interactive Weather Map
Tropical Storm Tracking
New forecast layout! Learn more

10-Day Weather Forecast

Advertisements
Track Severe Weather on mobile